Rochester, MN

6:14 PM CST on November 18, 2017 (GMT -0600)
Rochester International

Weather History for KRST - June, 2014

Change the Weather History Date:

Sunday, June 8, 2014

  Actual Average Record
Temperature  
Mean Temperature 62 °F 66 °F  
Max Temperature 73 °F 76 °F 101 °F (1985)
Min Temperature 50 °F 55 °F 35 °F (1910)
Degree Days  
Heating Degree Days 3 3  
Month to date heating degree days 5 27  
Since 1 July heating degree days 8911 7697  
Cooling Degree Days 0 3  
Month to date cooling degree days 27 20  
Year to date cooling degree days 66 54  
Growing Degree Days 12 (Base 50)    
Moisture  
Dew Point 44 °F    
Average Humidity 59    
Maximum Humidity 86    
Minimum Humidity 31    
Precipitation  
Precipitation T in 0.16 in 2.22 in (1934)
Month to date precipitation 0.91 1.21  
Year to date precipitation 12.24 11.65  
Snow  
Snow 0.00 in 0.00 in 0.00 in (2012)
Month to date snowfall 0.0 0.0  
Since 1 July snowfall 60.5 51.9  
Snow Depth 0.00 in    
Sea Level Pressure  
Sea Level Pressure 30.08 in    
Wind  
Wind Speed 9 mph (NE)    
Max Wind Speed 18 mph    
Max Gust Speed 25 mph    
Visibility 10 miles    
Events      
T = Trace of Precipitation, MM = Missing Value Source: NWS Daily Summary

Daily Weather History Graph

Daily Weather History Graph

Search for Another Location

Airport or City:

Trip Planner

Search our weather history database for the weather conditions in past years. The results will help you decide how hot, cold, wet, or windy it might be!

Date:

Astronomy

Jun. 08, 2014 Rise Set
Actual Time 5:27 AM CDT 8:50 PM CDT
Civil Twilight 4:51 AM CDT 9:26 PM CDT
Nautical Twilight 4:05 AM CDT 10:13 PM CDT
Astronomical Twilight 3:06 AM CDT 11:12 PM CDT
Moon 4:01 PM CDT (6/8) 2:30 AM CDT (6/8)
Length of Visible Light 16h 34m
Length of Day
15h 22m
Waxing Gibbous, 77% of the Moon is Illuminated
Jun 8
Waxing Gibbous
Jun 12
Full
Jun 19
Last Quarter
Jun 27
New
Jul 5
First Quarter

Hourly Weather History & Observations

Time (CDT) Temp. Dew Point Humidity Pressure Visibility Wind Dir Wind Speed Gust Speed Precip Events Conditions
12:03 AM 55.9 °F 51.1 °F 84% 30.05 in 10.0 mi NNE 12.7 mph - N/A   Overcast
12:54 AM 55.9 °F 50.0 °F 80% 30.05 in 10.0 mi NNE 12.7 mph - N/A   Overcast
1:54 AM 55.9 °F 48.9 °F 77% 30.04 in 10.0 mi NNE 9.2 mph - N/A   Overcast
2:54 AM 54.0 °F 48.0 °F 80% 30.06 in 10.0 mi North 9.2 mph - N/A   Mostly Cloudy
3:54 AM 51.1 °F 46.9 °F 86% 30.06 in 10.0 mi NNW 10.4 mph - N/A   Clear
4:54 AM 50.0 °F 46.9 °F 89% 30.07 in 10.0 mi North 9.2 mph - N/A   Clear
5:54 AM 50.0 °F 46.0 °F 86% 30.09 in 10.0 mi North 9.2 mph - N/A   Clear
6:54 AM 53.1 °F 48.0 °F 83% 30.10 in 10.0 mi North 11.5 mph - N/A   Clear
7:54 AM 57.9 °F 46.9 °F 67% 30.13 in 10.0 mi NNE 9.2 mph - N/A   Clear
8:54 AM 62.1 °F 46.9 °F 58% 30.13 in 10.0 mi NE 12.7 mph - N/A   Clear
9:54 AM 66.0 °F 46.0 °F 48% 30.13 in 10.0 mi NE 13.8 mph 23.0 mph N/A   Clear
10:54 AM 68.0 °F 42.1 °F 39% 30.12 in 10.0 mi NE 16.1 mph 25.3 mph N/A   Clear
11:54 AM 69.1 °F 39.9 °F 35% 30.12 in 10.0 mi NE 9.2 mph 17.3 mph N/A   Clear
12:54 PM 70.0 °F 43.0 °F 38% 30.11 in 10.0 mi ENE 9.2 mph 17.3 mph N/A   Clear
1:54 PM 71.1 °F 41.0 °F 34% 30.09 in 10.0 mi NNE 12.7 mph - N/A   Clear
2:54 PM 71.1 °F 39.9 °F 32% 30.07 in 10.0 mi Variable 4.6 mph - N/A   Clear
3:54 PM 72.0 °F 39.9 °F 31% 30.07 in 10.0 mi ESE 8.1 mph - N/A   Partly Cloudy
4:54 PM 73.0 °F 41.0 °F 31% 30.06 in 10.0 mi NE 10.4 mph - N/A   Partly Cloudy
5:54 PM 72.0 °F 41.0 °F 33% 30.05 in 10.0 mi NE 10.4 mph - N/A   Clear
6:54 PM 69.1 °F 42.1 °F 38% 30.04 in 10.0 mi East 6.9 mph - N/A   Clear
7:54 PM 66.9 °F 39.9 °F 37% 30.04 in 10.0 mi NE 6.9 mph - 0.00 in   Clear
8:54 PM 66.0 °F 41.0 °F 40% 30.05 in 10.0 mi ENE 4.6 mph - N/A   Clear
9:54 PM 63.0 °F 42.1 °F 46% 30.06 in 10.0 mi East 3.5 mph - N/A   Partly Cloudy
10:54 PM 63.0 °F 44.1 °F 50% 30.07 in 10.0 mi NE 5.8 mph - N/A   Clear
11:54 PM 62.1 °F 44.1 °F 52% 30.06 in 10.0 mi NE 5.8 mph - N/A   Mostly Cloudy